パンスターズ彗星

C/2017 U4 ( PanSTARRS )

English version
Home page
Updated on December 24, 2017

---------------------------------------------------------------------

・ プロフィール

発見日 2017年10月27日
発見光度 21.7等
発見者 Pan-STARRS 1 telescope (Haleakala)

・ 軌道要素

Epoch 2018 Oct. 9.0 TT = JDT 2458400.5
T 2018 Oct. 2.17349 TT                                  MPCW
q   7.7122162            (2000.0)            P               Q
z  -0.0013835      Peri.  159.63460     +0.08717166     +0.93688447
 +/-0.0016327      Node   245.93554     +0.85495475     +0.10410078
e   1.0106699      Incl.  158.23333     +0.51132521     -0.33378214
From 49 observations 2017 Oct. 27-Nov. 24, mean residual 0".5.

・ 光度変化

        m1 = 7.5 + 5 logΔ + 10.0 log r

---------------------------------------------------------------------

軌道要素はM.P.E.C. 2017-X08に掲載されたものです。
光度グラフはComet for Windowsで作成したものです。

---------------------------------------------------------------------

Copyright(C) Seiichi Yoshida (comet@aerith.net). All rights reserved.